Powrót do katalogu

KUIPER-00275

AktywnyŁącznośćLEO
NORAD 67793·PAYLOAD·🇺🇸 United States

Wystrzelony Feb 12, 2026 z Guiana Space Centre

Loading…

Następne Przeloty (najbliższe 24 godziny)

TLE

ŚwieżeSource: CelesTrak SupGP

Epoka: Sep 14, 2026, 20:03 UTC

1 67793C 26030AF  26257.83592593  .00004409  00000+0  57733-3 0  2570
2 67793  51.8991  66.7209 0000846 119.5902 243.9520 14.79916486    13

Śledź KUIPER-00275 w czasie rzeczywistym z AllMySat

Download on the App Store